| time (UTC) | temp F | wind direction | speed MPH | gust MPH | rain 1hr in | rain 24hr in | rain mn in | humidity % | barometer mb |
| 20260502130523 | 73 | 207 | 7.0 | 10.0 | 0.00 | 0.00 | 0.00 | 93 | 1010.6 |
| 20260502123519 | 72 | 200 | 6.0 | 8.0 | 0.00 | 0.00 | 0.00 | 95 | 1010.5 |
| 20260502123041 | 72 | 208 | 6.0 | 9.0 | 0.00 | 0.00 | 0.00 | 95 | 1010.4 |
| 20260502122520 | 72 | 208 | 5.0 | 9.0 | 0.00 | 0.00 | 0.00 | 95 | 1010.3 |
| 20260502122021 | 72 | 202 | 6.0 | 8.0 | 0.00 | 0.00 | 0.00 | 95 | 1010.2 |
| 20260502121540 | 72 | 205 | 6.0 | 9.0 | 0.00 | 0.00 | 0.00 | 95 | 1010.1 |
| 20260502121022 | 72 | 200 | 6.0 | 9.0 | 0.00 | 0.00 | 0.00 | 95 | 1010.1 |
| 20260502120521 | 72 | 186 | 6.0 | 8.0 | 0.00 | 0.00 | 0.00 | 95 | 1010.3 |
| 20260502115525 | 72 | 228 | 6.0 | 9.0 | 0.00 | 0.00 | 0.00 | 95 | 1010.4 |
| 20260502115019 | 72 | 216 | 6.0 | 10.0 | 0.00 | 0.00 | 0.00 | 95 | 1010.2 |
| 20260502114540 | 72 | 231 | 7.0 | 10.0 | 0.00 | 0.00 | 0.00 | 95 | 1010.2 |
| 20260502114022 | 72 | 222 | 7.0 | 10.0 | 0.00 | 0.00 | 0.00 | 95 | 1010.2 |
| 20260502113524 | 72 | 199 | 7.0 | 11.0 | 0.00 | 0.00 | 0.00 | 95 | 1010.0 |
| 20260502113037 | 72 | 196 | 7.0 | 11.0 | 0.00 | 0.00 | 0.00 | 95 | 1010.0 |
| 20260502112519 | 72 | 188 | 8.0 | 10.0 | 0.00 | 0.00 | 0.00 | 95 | 1009.9 |
| 20260502112020 | 72 | 179 | 6.0 | 9.0 | 0.00 | 0.00 | 0.00 | 94 | 1009.7 |
| 20260502111548 | 72 | 182 | 6.0 | 11.0 | 0.00 | 0.00 | 0.00 | 94 | 1009.7 |
| 20260502111022 | 72 | 195 | 7.0 | 11.0 | 0.00 | 0.00 | 0.00 | 94 | 1009.7 |
| 20260502110522 | 72 | 192 | 7.0 | 10.0 | 0.00 | 0.00 | 0.00 | 94 | 1009.8 |
| 20260502110049 | 72 | 188 | 7.0 | 9.0 | 0.00 | 0.00 | 0.00 | 94 | 1009.9 |
| 20260502105523 | 72 | 184 | 5.0 | 8.0 | 0.00 | 0.00 | 0.00 | 94 | 1009.7 |
| 20260502105019 | 72 | 182 | 3.0 | 8.0 | 0.00 | 0.00 | 0.00 | 94 | 1009.8 |
| 20260502104545 | 71 | 203 | 5.0 | 8.0 | 0.00 | 0.00 | 0.00 | 94 | 1009.7 |
| 20260502104022 | 71 | 204 | 6.0 | 8.0 | 0.00 | 0.00 | 0.00 | 94 | 1009.7 |
| 20260502103520 | 71 | 198 | 3.0 | 7.0 | 0.00 | 0.00 | 0.00 | 94 | 1009.6 |
| 20260502103051 | 71 | 277 | 0.0 | 2.0 | 0.00 | 0.00 | 0.00 | 93 | 1009.7 |
| 20260502102520 | 71 | 0 | 0.0 | 2.0 | 0.00 | 0.00 | 0.00 | 93 | 1009.6 |
| 20260502102020 | 71 | 0 | 0.0 | 4.0 | 0.00 | 0.00 | 0.00 | 93 | 1009.6 |
| 20260502101603 | 71 | 278 | 1.0 | 4.0 | 0.00 | 0.00 | 0.00 | 93 | 1009.6 |
| 20260502101022 | 71 | 270 | 2.0 | 4.0 | 0.00 | 0.00 | 0.00 | 92 | 1009.7 |
| 20260502100520 | 72 | 279 | 2.0 | 4.0 | 0.00 | 0.00 | 0.00 | 92 | 1009.8 |
| 20260502091019 | 71 | 0 | 1.0 | 3.0 | 0.00 | 0.00 | 0.00 | 92 | 1010.4 |
| 20260502090519 | 71 | 267 | 1.0 | 3.0 | 0.00 | 0.00 | 0.00 | 92 | 1010.4 |
| 20260502071020 | 73 | 273 | 1.0 | 4.0 | 0.00 | 0.00 | 0.00 | 88 | 1010.2 |
| 20260502070520 | 73 | 277 | 2.0 | 6.0 | 0.00 | 0.00 | 0.00 | 88 | 1010.1 |
| 20260502070043 | 73 | 279 | 2.0 | 6.0 | 0.00 | 0.00 | 0.00 | 88 | 1010.3 |
| 20260502065520 | 74 | 262 | 2.0 | 6.0 | 0.00 | 0.00 | 0.00 | 88 | 1010.3 |
| 20260502065020 | 74 | 269 | 2.0 | 6.0 | 0.00 | 0.00 | 0.00 | 88 | 1010.2 |
| 20260502064544 | 74 | 254 | 3.0 | 6.0 | 0.00 | 0.00 | 0.00 | 87 | 1010.3 |
| 20260502064019 | 74 | 272 | 2.0 | 7.0 | 0.00 | 0.00 | 0.00 | 87 | 1010.3 |
| 20260502063519 | 74 | 296 | 2.0 | 7.0 | 0.00 | 0.00 | 0.00 | 87 | 1010.3 |
| 20260502063040 | 74 | 288 | 2.0 | 7.0 | 0.00 | 0.00 | 0.00 | 87 | 1010.4 |
| 20260502062522 | 74 | 280 | 2.0 | 6.0 | 0.00 | 0.00 | 0.00 | 86 | 1010.4 |
| 20260502062022 | 74 | 280 | 2.0 | 6.0 | 0.00 | 0.00 | 0.00 | 86 | 1010.3 |
| 20260502061542 | 74 | 263 | 3.0 | 6.0 | 0.00 | 0.00 | 0.00 | 86 | 1010.4 |
| 20260502061020 | 74 | 271 | 2.0 | 6.0 | 0.00 | 0.00 | 0.00 | 86 | 1010.4 |
| 20260502060520 | 74 | 285 | 2.0 | 6.0 | 0.00 | 0.00 | 0.00 | 85 | 1010.4 |
| 20260502060037 | 74 | 288 | 1.0 | 7.0 | 0.00 | 0.00 | 0.00 | 84 | 1010.4 |
| 20260502055520 | 75 | 286 | 4.0 | 9.0 | 0.00 | 0.00 | 0.00 | 84 | 1010.4 |
| 20260502055020 | 75 | 258 | 3.0 | 9.0 | 0.00 | 0.00 | 0.00 | 83 | 1010.4 |
| 20260502054544 | 75 | 260 | 4.0 | 9.0 | 0.00 | 0.00 | 0.00 | 83 | 1010.5 |
| 20260502054019 | 75 | 269 | 4.0 | 9.0 | 0.00 | 0.00 | 0.00 | 83 | 1010.5 |
| 20260502053519 | 75 | 274 | 4.0 | 9.0 | 0.00 | 0.00 | 0.00 | 82 | 1010.7 |
| 20260502053048 | 75 | 278 | 6.0 | 9.0 | 0.00 | 0.00 | 0.00 | 82 | 1010.7 |
| 20260502052523 | 75 | 267 | 6.0 | 9.0 | 0.00 | 0.00 | 0.00 | 82 | 1010.6 |
| 20260502052023 | 75 | 275 | 4.0 | 10.0 | 0.00 | 0.00 | 0.00 | 82 | 1010.7 |
| 20260502051554 | 76 | 252 | 6.0 | 10.0 | 0.00 | 0.00 | 0.00 | 82 | 1010.6 |
| 20260502051020 | 76 | 264 | 6.0 | 10.0 | 0.00 | 0.00 | 0.00 | 82 | 1010.7 |
| 20260502050523 | 76 | 277 | 4.0 | 10.0 | 0.00 | 0.00 | 0.00 | 81 | 1010.6 |
| 20260502050041 | 76 | 279 | 3.0 | 10.0 | 0.00 | 0.00 | 0.00 | 80 | 1010.6 |
| 20260502045523 | 76 | 275 | 4.0 | 10.0 | 0.00 | 0.00 | 0.00 | 80 | 1010.6 |
| 20260502045020 | 76 | 287 | 6.0 | 10.0 | 0.00 | 0.00 | 0.00 | 80 | 1010.5 |
| 20260502044535 | 76 | 263 | 4.0 | 8.0 | 0.00 | 0.00 | 0.00 | 80 | 1010.4 |
| 20260502044023 | 76 | 269 | 5.0 | 8.0 | 0.00 | 0.00 | 0.00 | 80 | 1010.4 |
| 20260502043524 | 76 | 256 | 3.0 | 8.0 | 0.00 | 0.00 | 0.00 | 80 | 1010.6 |
| 20260502043044 | 76 | 279 | 4.0 | 8.0 | 0.00 | 0.00 | 0.00 | 80 | 1010.6 |
| 20260502042524 | 76 | 275 | 2.0 | 6.0 | 0.00 | 0.00 | 0.00 | 81 | 1010.6 |
| 20260502042024 | 75 | 294 | 2.0 | 6.0 | 0.00 | 0.00 | 0.00 | 82 | 1010.6 |
| 20260502041542 | 75 | 279 | 2.0 | 4.0 | 0.00 | 0.00 | 0.00 | 82 | 1010.5 |
| 20260502041023 | 75 | 308 | 1.0 | 3.0 | 0.00 | 0.00 | 0.00 | 82 | 1010.6 |
| 20260502040523 | 75 | 311 | 1.0 | 3.0 | 0.00 | 0.00 | 0.00 | 83 | 1010.7 |
| 20260502040048 | 75 | 315 | 0.0 | 3.0 | 0.00 | 0.00 | 0.00 | 84 | 1010.8 |
| 20260502035523 | 75 | 312 | 1.0 | 3.0 | 0.00 | 0.00 | 0.00 | 85 | 1010.7 |
| 20260502035023 | 75 | 317 | 1.0 | 3.0 | 0.00 | 0.00 | 0.00 | 86 | 1010.8 |
| 20260502034539 | 76 | 12 | 0.0 | 2.0 | 0.00 | 0.00 | 0.00 | 86 | 1010.7 |
| 20260502034025 | 76 | 13 | 1.0 | 2.0 | 0.00 | 0.00 | 0.00 | 85 | 1010.7 |
| 20260502033524 | 76 | 13 | 0.0 | 0.0 | 0.00 | 0.00 | 0.00 | 84 | 1010.7 |
| 20260502033042 | 76 | 0 | 0.0 | 0.0 | 0.00 | 0.00 | 0.00 | 84 | 1010.7 |
| 20260502032525 | 76 | 0 | 0.0 | 0.0 | 0.00 | 0.00 | 0.00 | 83 | 1010.8 |
| 20260502032024 | 77 | 0 | 0.0 | 0.0 | 0.00 | 0.00 | 0.00 | 83 | 1010.8 |
| 20260502031545 | 77 | 0 | 0.0 | 1.0 | 0.00 | 0.00 | 0.00 | 83 | 1010.7 |
| 20260502031024 | 77 | 0 | 0.0 | 1.0 | 0.00 | 0.00 | 0.00 | 82 | 1010.7 |
| 20260502030524 | 77 | 0 | 0.0 | 1.0 | 0.00 | 0.00 | 0.00 | 82 | 1010.8 |
| 20260502030042 | 77 | 0 | 0.0 | 1.0 | 0.00 | 0.00 | 0.00 | 81 | 1010.8 |
| 20260502025523 | 78 | 0 | 0.0 | 1.0 | 0.00 | 0.00 | 0.00 | 81 | 1010.8 |
| 20260502025023 | 78 | 0 | 0.0 | 0.0 | 0.00 | 0.00 | 0.00 | 79 | 1010.9 |
| 20260502024541 | 78 | 0 | 0.0 | 2.0 | 0.00 | 0.00 | 0.00 | 79 | 1010.9 |
| 20260502024023 | 79 | 0 | 0.0 | 2.0 | 0.00 | 0.00 | 0.00 | 78 | 1010.9 |
| 20260502023523 | 79 | 13 | 0.0 | 2.0 | 0.00 | 0.00 | 0.00 | 78 | 1010.7 |
| 20260502023040 | 79 | 13 | 0.0 | 2.0 | 0.00 | 0.00 | 0.00 | 77 | 1010.7 |
| 20260502022524 | 80 | 0 | 0.0 | 1.0 | 0.00 | 0.00 | 0.00 | 75 | 1010.7 |
| 20260502022026 | 80 | 0 | 0.0 | 2.0 | 0.00 | 0.00 | 0.00 | 75 | 1010.8 |
| 20260502021538 | 80 | 0 | 0.0 | 2.0 | 0.00 | 0.00 | 0.00 | 74 | 1010.7 |
| 20260502021023 | 80 | 15 | 0.0 | 2.0 | 0.00 | 0.00 | 0.00 | 73 | 1010.8 |
| 20260502020526 | 81 | 0 | 0.0 | 2.0 | 0.00 | 0.00 | 0.00 | 71 | 1010.7 |
| 20260502020035 | 81 | 15 | 0.0 | 2.0 | 0.00 | 0.00 | 0.00 | 71 | 1010.5 |
| 20260502015520 | 81 | 0 | 0.0 | 2.0 | 0.00 | 0.00 | 0.00 | 70 | 1010.5 |
| 20260502015022 | 82 | 0 | 0.0 | 3.0 | 0.00 | 0.00 | 0.00 | 68 | 1010.5 |
| 20260502014536 | 82 | 15 | 0.0 | 3.0 | 0.00 | 0.00 | 0.00 | 67 | 1010.4 |
| 20260502014020 | 82 | 0 | 0.0 | 5.0 | 0.00 | 0.00 | 0.00 | 66 | 1010.3 |
| 20260502013519 | 82 | 0 | 1.0 | 5.0 | 0.00 | 0.00 | 0.00 | 65 | 1010.4 |
| 20260502013051 | 82 | 283 | 0.0 | 4.0 | 0.00 | 0.00 | 0.00 | 64 | 1010.4 |
| 20260502012519 | 83 | 102 | 0.0 | 3.0 | 0.00 | 0.00 | 0.00 | 64 | 1010.3 |
| 20260502012022 | 83 | 294 | 1.0 | 7.0 | 0.00 | 0.00 | 0.00 | 63 | 1010.2 |
| 20260502011557 | 83 | 289 | 1.0 | 7.0 | 0.00 | 0.00 | 0.00 | 63 | 1010.2 |
| 20260502011020 | 83 | 270 | 2.0 | 7.0 | 0.00 | 0.00 | 0.00 | 63 | 1010.0 |
| 20260502010520 | 83 | 0 | 2.0 | 7.0 | 0.00 | 0.00 | 0.00 | 63 | 1009.9 |
| 20260502010044 | 83 | 284 | 2.0 | 7.0 | 0.00 | 0.00 | 0.00 | 63 | 1009.8 |
| 20260502005520 | 83 | 273 | 2.0 | 7.0 | 0.00 | 0.00 | 0.00 | 63 | 1009.8 |
| 20260502005020 | 83 | 272 | 2.0 | 7.0 | 0.00 | 0.00 | 0.00 | 63 | 1009.7 |
| 20260502004552 | 83 | 248 | 3.0 | 7.0 | 0.00 | 0.00 | 0.00 | 62 | 1009.5 |
| 20260502004021 | 83 | 275 | 1.0 | 4.0 | 0.00 | 0.00 | 0.00 | 62 | 1009.5 |
| 20260502003524 | 84 | 275 | 1.0 | 4.0 | 0.00 | 0.00 | 0.00 | 62 | 1009.3 |
| 20260502003034 | 84 | 275 | 2.0 | 4.0 | 0.00 | 0.00 | 0.00 | 61 | 1009.3 |
| 20260502002520 | 84 | 273 | 1.0 | 3.0 | 0.00 | 0.00 | 0.00 | 61 | 1009.1 |
| 20260502002023 | 84 | 269 | 0.0 | 3.0 | 0.00 | 0.00 | 0.00 | 61 | 1008.9 |
| 20260502001541 | 84 | 269 | 1.0 | 3.0 | 0.00 | 0.00 | 0.00 | 61 | 1009.0 |
| 20260502001023 | 84 | 269 | 2.0 | 4.0 | 0.00 | 0.00 | 0.00 | 62 | 1008.9 |
| 20260502000519 | 84 | 266 | 1.0 | 4.0 | 0.00 | 0.00 | 0.00 | 61 | 1008.9 |
| 20260502000046 | 84 | 276 | 2.0 | 4.0 | 0.00 | 0.00 | 0.00 | 59 | 1008.9 |
| 20260501235523 | 85 | 271 | 2.0 | 4.0 | 0.00 | 0.00 | 0.00 | 59 | 1008.8 |
| 20260501235019 | 85 | 243 | 1.0 | 4.0 | 0.00 | 0.00 | 0.00 | 61 | 1008.8 |
| 20260501234542 | 85 | 200 | 1.0 | 3.0 | 0.00 | 0.00 | 0.00 | 63 | 1008.7 |
| 20260501234019 | 86 | 250 | 1.0 | 4.0 | 0.00 | 0.00 | 0.00 | 63 | 1008.7 |
| 20260501233518 | 86 | 275 | 2.0 | 4.0 | 0.00 | 0.00 | 0.00 | 62 | 1008.7 |
| 20260501233041 | 86 | 236 | 3.0 | 4.0 | 0.00 | 0.00 | 0.00 | 61 | 1008.7 |
| 20260501232519 | 86 | 234 | 2.0 | 5.0 | 0.00 | 0.00 | 0.00 | 59 | 1008.7 |
| 20260501232023 | 86 | 236 | 3.0 | 5.0 | 0.00 | 0.00 | 0.00 | 58 | 1008.6 |
| 20260501231548 | 87 | 234 | 3.0 | 5.0 | 0.00 | 0.00 | 0.00 | 58 | 1008.6 |
| 20260501231019 | 87 | 234 | 3.0 | 5.0 | 0.00 | 0.00 | 0.00 | 56 | 1008.6 |
| 20260501230522 | 87 | 234 | 3.0 | 7.0 | 0.00 | 0.00 | 0.00 | 57 | 1008.5 |
| 20260501230042 | 87 | 234 | 4.0 | 7.0 | 0.00 | 0.00 | 0.00 | 57 | 1008.5 |
| 20260501225519 | 87 | 235 | 4.0 | 9.0 | 0.00 | 0.00 | 0.00 | 55 | 1008.4 |
| 20260501225023 | 87 | 235 | 4.0 | 10.0 | 0.00 | 0.00 | 0.00 | 58 | 1008.4 |
| 20260501224542 | 87 | 240 | 5.0 | 10.0 | 0.00 | 0.00 | 0.00 | 54 | 1008.3 |
| 20260501224024 | 88 | 239 | 6.0 | 12.0 | 0.00 | 0.00 | 0.00 | 53 | 1008.2 |
| 20260501223522 | 88 | 246 | 6.0 | 12.0 | 0.00 | 0.00 | 0.00 | 53 | 1008.2 |
| 20260501223042 | 88 | 272 | 7.0 | 12.0 | 0.00 | 0.00 | 0.00 | 53 | 1008.2 |
| 20260501222524 | 88 | 233 | 5.0 | 12.0 | 0.00 | 0.00 | 0.00 | 54 | 1008.2 |
| 20260501222023 | 88 | 246 | 8.0 | 12.0 | 0.00 | 0.00 | 0.00 | 53 | 1008.2 |
| 20260501221547 | 88 | 236 | 7.0 | 12.0 | 0.00 | 0.00 | 0.00 | 53 | 1008.1 |
| 20260501221023 | 88 | 228 | 7.0 | 12.0 | 0.00 | 0.00 | 0.00 | 51 | 1008.0 |
| 20260501220523 | 88 | 219 | 4.0 | 10.0 | 0.00 | 0.00 | 0.00 | 53 | 1008.1 |
| 20260501220042 | 88 | 236 | 6.0 | 10.0 | 0.00 | 0.00 | 0.00 | 52 | 1008.2 |
| 20260501215523 | 88 | 216 | 6.0 | 10.0 | 0.00 | 0.00 | 0.00 | 53 | 1008.2 |
| 20260501215023 | 88 | 234 | 6.0 | 8.0 | 0.00 | 0.00 | 0.00 | 54 | 1008.2 |
| 20260501214542 | 88 | 209 | 4.0 | 9.0 | 0.00 | 0.00 | 0.00 | 53 | 1008.1 |
| 20260501214025 | 88 | 222 | 6.0 | 9.0 | 0.00 | 0.00 | 0.00 | 51 | 1008.1 |
| 20260501213522 | 88 | 218 | 5.0 | 8.0 | 0.00 | 0.00 | 0.00 | 52 | 1008.0 |
| 20260501213041 | 88 | 205 | 3.0 | 7.0 | 0.00 | 0.00 | 0.00 | 51 | 1008.0 |
| 20260501212522 | 88 | 207 | 3.0 | 9.0 | 0.00 | 0.00 | 0.00 | 52 | 1008.1 |
| 20260501212023 | 88 | 213 | 4.0 | 9.0 | 0.00 | 0.00 | 0.00 | 51 | 1008.3 |
| 20260501211540 | 88 | 225 | 5.0 | 9.0 | 0.00 | 0.00 | 0.00 | 50 | 1008.4 |
| 20260501211024 | 88 | 196 | 3.0 | 10.0 | 0.00 | 0.00 | 0.00 | 53 | 1008.5 |
| 20260501210524 | 88 | 250 | 6.0 | 10.0 | 0.00 | 0.00 | 0.00 | 51 | 1008.6 |
| 20260501210041 | 88 | 234 | 7.0 | 10.0 | 0.00 | 0.00 | 0.00 | 54 | 1008.6 |
| 20260501205524 | 88 | 184 | 6.0 | 10.0 | 0.00 | 0.00 | 0.00 | 51 | 1008.7 |
| 20260501205023 | 88 | 197 | 7.0 | 10.0 | 0.00 | 0.00 | 0.00 | 51 | 1008.7 |
| 20260501204535 | 88 | 209 | 4.0 | 10.0 | 0.00 | 0.00 | 0.00 | 52 | 1008.8 |
| 20260501204022 | 88 | 216 | 4.0 | 11.0 | 0.00 | 0.00 | 0.00 | 54 | 1008.6 |
| 20260501203522 | 88 | 236 | 6.0 | 11.0 | 0.00 | 0.00 | 0.00 | 54 | 1008.6 |
| 20260501203035 | 88 | 251 | 5.0 | 11.0 | 0.00 | 0.00 | 0.00 | 53 | 1008.6 |
| 20260501202523 | 88 | 224 | 6.0 | 10.0 | 0.00 | 0.00 | 0.00 | 54 | 1008.6 |
| 20260501202023 | 88 | 180 | 2.0 | 11.0 | 0.00 | 0.00 | 0.00 | 52 | 1008.7 |
| 20260501201542 | 88 | 227 | 4.0 | 11.0 | 0.00 | 0.00 | 0.00 | 53 | 1008.8 |
| 20260501201022 | 88 | 217 | 7.0 | 11.0 | 0.00 | 0.00 | 0.00 | 53 | 1008.9 |
| 20260501200527 | 88 | 210 | 4.0 | 8.0 | 0.00 | 0.00 | 0.00 | 53 | 1009.1 |
| 20260501200041 | 88 | 194 | 5.0 | 11.0 | 0.00 | 0.00 | 0.00 | 53 | 1009.1 |
| 20260501195522 | 88 | 216 | 7.0 | 11.0 | 0.00 | 0.00 | 0.00 | 52 | 1009.2 |
| 20260501195022 | 89 | 173 | 2.0 | 5.0 | 0.00 | 0.00 | 0.00 | 54 | 1009.2 |
| 20260501194547 | 88 | 192 | 3.0 | 5.0 | 0.00 | 0.00 | 0.00 | 55 | 1009.3 |
| 20260501194022 | 88 | 202 | 0.0 | 7.0 | 0.00 | 0.00 | 0.00 | 55 | 1009.7 |
| 20260501193522 | 88 | 296 | 2.0 | 7.0 | 0.00 | 0.00 | 0.00 | 53 | 1009.8 |
| 20260501193042 | 88 | 0 | 0.0 | 6.0 | 0.00 | 0.00 | 0.00 | 54 | 1009.9 |
| 20260501192520 | 88 | 259 | 2.0 | 9.0 | 0.00 | 0.00 | 0.00 | 53 | 1009.9 |
| 20260501192023 | 88 | 204 | 3.0 | 9.0 | 0.00 | 0.00 | 0.00 | 55 | 1009.9 |
| 20260501191536 | 87 | 220 | 6.0 | 9.0 | 0.00 | 0.00 | 0.00 | 57 | 1010.0 |
| 20260501191023 | 87 | 212 | 2.0 | 9.0 | 0.00 | 0.00 | 0.00 | 58 | 1010.1 |
| 20260501190523 | 87 | 217 | 3.0 | 9.0 | 0.00 | 0.00 | 0.00 | 56 | 1010.2 |
| 20260501190057 | 88 | 224 | 7.0 | 9.0 | 0.00 | 0.00 | 0.00 | 55 | 1010.2 |
| 20260501185526 | 87 | 296 | 4.0 | 8.0 | 0.00 | 0.00 | 0.00 | 55 | 1010.2 |
| 20260501185022 | 87 | 225 | 3.0 | 8.0 | 0.00 | 0.00 | 0.00 | 54 | 1010.4 |
| 20260501184543 | 87 | 232 | 2.0 | 9.0 | 0.00 | 0.00 | 0.00 | 55 | 1010.6 |
| 20260501184023 | 87 | 273 | 6.0 | 9.0 | 0.00 | 0.00 | 0.00 | 55 | 1010.5 |
| 20260501183523 | 87 | 232 | 1.0 | 8.0 | 0.00 | 0.00 | 0.00 | 55 | 1010.6 |
| 20260501183041 | 87 | 319 | 2.0 | 8.0 | 0.00 | 0.00 | 0.00 | 54 | 1010.6 |
| 20260501182523 | 86 | 284 | 3.0 | 10.0 | 0.00 | 0.00 | 0.00 | 55 | 1010.6 |
| 20260501182022 | 86 | 268 | 3.0 | 10.0 | 0.00 | 0.00 | 0.00 | 56 | 1010.7 |
| 20260501181540 | 86 | 249 | 7.0 | 14.0 | 0.00 | 0.00 | 0.00 | 55 | 1010.7 |
| 20260501181019 | 86 | 246 | 5.0 | 14.0 | 0.00 | 0.00 | 0.00 | 55 | 1010.8 |
| 20260501180527 | 86 | 254 | 8.0 | 14.0 | 0.00 | 0.00 | 0.00 | 54 | 1011.0 |
| 20260501180041 | 86 | 268 | 3.0 | 10.0 | 0.00 | 0.00 | 0.00 | 56 | 1011.1 |
| 20260501175521 | 85 | 0 | 0.0 | 0.0 | 0.00 | 0.00 | 0.00 | 58 | 1011.1 |
| 20260501175022 | 85 | 0 | 0.0 | 0.0 | 0.00 | 0.00 | 0.00 | 59 | 1011.2 |
| 20260501174543 | 85 | 0 | 0.0 | 0.0 | 0.00 | 0.00 | 0.00 | 59 | 1011.1 |
| 20260501174022 | 85 | 0 | 0.0 | 0.0 | 0.00 | 0.00 | 0.00 | 61 | 1011.1 |
| 20260501173522 | 84 | 0 | 0.0 | 0.0 | 0.00 | 0.00 | 0.00 | 60 | 1011.2 |
| 20260501173041 | 84 | 0 | 0.0 | 0.0 | 0.00 | 0.00 | 0.00 | 59 | 1011.3 |
| 20260501172523 | 84 | 0 | 0.0 | 0.0 | 0.00 | 0.00 | 0.00 | 60 | 1011.3 |
| 20260501172022 | 84 | 0 | 0.0 | 0.0 | 0.00 | 0.00 | 0.00 | 60 | 1011.3 |
| 20260501171541 | 85 | 0 | 0.0 | 0.0 | 0.00 | 0.00 | 0.00 | 62 | 1011.4 |
| 20260501171026 | 84 | 0 | 0.0 | 0.0 | 0.00 | 0.00 | 0.00 | 60 | 1011.4 |
| 20260501170532 | 84 | 0 | 0.0 | 0.0 | 0.00 | 0.00 | 0.00 | 61 | 1011.5 |
| 20260501170040 | 84 | 0 | 0.0 | 0.0 | 0.00 | 0.00 | 0.00 | 62 | 1011.5 |
| 20260501165523 | 84 | 0 | 0.0 | 0.0 | 0.00 | 0.00 | 0.00 | 62 | 1011.5 |
| 20260501165023 | 84 | 0 | 0.0 | 0.0 | 0.00 | 0.00 | 0.00 | 61 | 1011.7 |
| 20260501164537 | 84 | 0 | 0.0 | 0.0 | 0.00 | 0.00 | 0.00 | 62 | 1011.7 |
| 20260501164022 | 84 | 0 | 0.0 | 0.0 | 0.00 | 0.00 | 0.00 | 65 | 1011.8 |
| 20260501163524 | 83 | 0 | 0.0 | 0.0 | 0.00 | 0.00 | 0.00 | 64 | 1011.9 |
| 20260501163035 | 83 | 0 | 0.0 | 0.0 | 0.00 | 0.00 | 0.00 | 65 | 1012.0 |
| 20260501162523 | 83 | 0 | 0.0 | 0.0 | 0.00 | 0.00 | 0.00 | 65 | 1012.1 |
| 20260501162024 | 83 | 0 | 0.0 | 0.0 | 0.00 | 0.00 | 0.00 | 64 | 1012.2 |
| 20260501161543 | 83 | 0 | 0.0 | 0.0 | 0.00 | 0.00 | 0.00 | 63 | 1012.1 |
| 20260501161023 | 83 | 0 | 0.0 | 0.0 | 0.00 | 0.00 | 0.00 | 64 | 1012.0 |
| 20260501160522 | 83 | 0 | 0.0 | 0.0 | 0.00 | 0.00 | 0.00 | 64 | 1012.1 |
| 20260501155526 | 82 | 0 | 0.0 | 0.0 | 0.00 | 0.00 | 0.00 | 67 | 1012.0 |
| 20260501155019 | 82 | 0 | 0.0 | 0.0 | 0.00 | 0.00 | 0.00 | 65 | 1012.0 |
| 20260501154618 | 82 | 0 | 0.0 | 0.0 | 0.00 | 0.00 | 0.00 | 69 | 1012.0 |
| 20260501154022 | 81 | 0 | 0.0 | 0.0 | 0.00 | 0.00 | 0.00 | 70 | 1012.1 |
| 20260501153522 | 81 | 0 | 0.0 | 0.0 | 0.00 | 0.00 | 0.00 | 70 | 1012.0 |
| 20260501153042 | 81 | 0 | 0.0 | 0.0 | 0.00 | 0.00 | 0.00 | 73 | 1012.0 |
| 20260501152522 | 81 | 0 | 0.0 | 0.0 | 0.00 | 0.00 | 0.00 | 72 | 1012.2 |
| 20260501152022 | 81 | 0 | 0.0 | 0.0 | 0.00 | 0.00 | 0.00 | 72 | 1012.2 |
| 20260501151539 | 81 | 0 | 0.0 | 0.0 | 0.00 | 0.00 | 0.00 | 72 | 1012.3 |
| 20260501151025 | 80 | 0 | 0.0 | 0.0 | 0.00 | 0.00 | 0.00 | 75 | 1012.2 |
| 20260501150524 | 80 | 0 | 0.0 | 0.0 | 0.00 | 0.00 | 0.00 | 75 | 1012.3 |
| 20260501150058 | 80 | 0 | 0.0 | 0.0 | 0.00 | 0.00 | 0.00 | 75 | 1012.3 |
| 20260501145527 | 80 | 0 | 0.0 | 0.0 | 0.00 | 0.00 | 0.00 | 76 | 1012.1 |
| 20260501145022 | 80 | 0 | 0.0 | 0.0 | 0.00 | 0.00 | 0.00 | 76 | 1012.1 |
| 20260501144543 | 79 | 0 | 0.0 | 0.0 | 0.00 | 0.00 | 0.00 | 77 | 1012.1 |
| 20260501144019 | 79 | 0 | 0.0 | 0.0 | 0.00 | 0.00 | 0.00 | 78 | 1012.1 |
| 20260501143524 | 79 | 0 | 0.0 | 0.0 | 0.00 | 0.00 | 0.00 | 78 | 1012.0 |
| 20260501143111 | 79 | 0 | 0.0 | 0.0 | 0.00 | 0.00 | 0.00 | 81 | 1012.0 |
| 20260501142523 | 79 | 0 | 0.0 | 0.0 | 0.00 | 0.00 | 0.00 | 80 | 1012.0 |
| 20260501142019 | 78 | 0 | 0.0 | 0.0 | 0.00 | 0.00 | 0.00 | 80 | 1012.1 |
| 20260501141604 | 78 | 0 | 0.0 | 0.0 | 0.00 | 0.00 | 0.00 | 80 | 1012.1 |
| 20260501141022 | 78 | 0 | 0.0 | 0.0 | 0.00 | 0.00 | 0.00 | 80 | 1012.1 |
| 20260501140521 | 78 | 0 | 0.0 | 0.0 | 0.00 | 0.00 | 0.00 | 81 | 1012.0 |
| 20260501140057 | 78 | 0 | 0.0 | 0.0 | 0.00 | 0.00 | 0.00 | 81 | 1012.2 |